Terminal Aerodrome Forecast
Issued by NWS Columbia, SC

Home | Current Version | Previous Version | Text Only | Print | Product List | Glossary On
Versions: 1 2 3 4 5 6 7 8 9 10 11 12 13 14 15 16 17 18 19 20 21 22 23 24 25 26 27 28
000
FTUS42 KCAE 231700
TAFCAE
TAF
KCAE 231734Z 2318/2418 05010G18KT P6SM VCSH BKN023 OVC040
      TEMPO 2318/2322 -SHRA SCT023
     FM240000 04008KT P6SM OVC035
      TEMPO 2408/2412 BKN025=

USA.gov is the U.S. government's official web portal to all federal, state and local government web resources and services.